Location: Boursonne
(49.2024°N, 3.0468°E)
Time: 00:24:12
(UTC+00:00)

IRS-1C Rocket - Pass Details

Date: 03 March 2021
Orbit: 800 x 806 km, 99.0° (Epoch: 14 April)

Event Time Altitude Azimuth Distance (km) Brightness Sun altitude
Rises 18:05:20 0° 161° (SSE) 3,304 7.1 -5.9°
Reaches altitude 10° 18:07:39 10° 161° (SSE) 2,378 6.4 -6.2°
Maximum altitude 18:12:55 87° 73° (ENE) 814 4.1 -7.1°
Drops below altitude 10° 18:18:14 10° 345° (NNW) 2,398 6.8 -8.0°
Sets 18:20:35 0° 346° (NNW) 3,334 7.5 -8.4°
